BEIDOU-2 G7

Last updated on Sat Sep 12 2026 00:03:03 GMT+0000 (Coordinated Universal Time)

1 41586U 16037A 26254.60336824 -.00000369 00000+0 00000+0 0 9999 2 41586 1.9296 69.6619 0005126 352.3109 256.3581 1.00276194 7756
UTC large
Height (km)
Speed (km/s)
/
Latitude / Longitude
Inclination (degrees)
Orbital Period (minutes)
Azimuth
Elevation
Range (km)
Doppler Factor

Next 0 passes for location: London (51.5072 / 0.1276)

No passes found over London.
BEIDOU-2 G7